Mount Vernon, IL

1:35 AM CDT on March 28, 2017 (GMT -0500)
Mount Vernon

Weather History for KMVN - March, 2012

Change the Weather History Date:

Tuesday, March 27, 2012

  Actual Average Record
Temperature  
Mean Temperature 60 °F -  
Max Temperature 75 °F 57 °F 82 °F (2007)
Min Temperature 46 °F 37 °F 15 °F (2001)
Degree Days  
Heating Degree Days 4    
Growing Degree Days 10 (Base 50)    
Moisture  
Dew Point 44 °F    
Average Humidity 56    
Maximum Humidity 72    
Minimum Humidity 41    
Precipitation  
Precipitation 0.00 in - - ()
Sea Level Pressure  
Sea Level Pressure 30.11 in    
Wind  
Wind Speed 8 mph (SE)    
Max Wind Speed 13 mph    
Max Gust Speed 17 mph    
Visibility 10 miles    
Events      
Averages and records for this station are not official NWS values.
T = Trace of Precipitation, MM = Missing Value Source: NWS Daily Summary

Daily Weather History Graph

Daily Weather History Graph

Search for Another Location

Airport or City:

Trip Planner

Search our weather history database for the weather conditions in past years. The results will help you decide how hot, cold, wet, or windy it might be!

Date:

Astronomy

Mar. 27, 2012 Rise Set
Actual Time 6:47 AM CDT 7:14 PM CDT
Civil Twilight 6:20 AM CDT 7:41 PM CDT
Nautical Twilight 5:49 AM CDT 8:12 PM CDT
Astronomical Twilight 5:17 AM CDT 8:44 PM CDT
Moon 9:21 AM CDT (3/27) No Moon Set
Length of Visible Light 13h 20m
Length of Day
12h 27m
Waxing Crescent, 22% of the Moon is Illuminated
Mar 27
Waxing Crescent
Mar 30
First Quarter
Apr 6
Full
Apr 13
Last Quarter
Apr 21
New

Hourly Weather History & Observations

Time (CDT) Temp. Windchill Dew Point Humidity Pressure Visibility Wind Dir Wind Speed Gust Speed Precip Events Conditions
12:15 AM 53.6 °F - 37.4 °F 54% 30.17 in 10.0 mi East 9.2 mph - N/A   Clear
12:35 AM 53.6 °F - 37.4 °F 54% 30.18 in 10.0 mi ENE 6.9 mph - N/A   Clear
12:55 AM 53.6 °F - 39.2 °F 58% 30.17 in 10.0 mi ENE 8.1 mph - N/A   Clear
1:15 AM 51.8 °F - 37.4 °F 58% 30.17 in 10.0 mi ENE 5.8 mph - N/A   Clear
1:35 AM 51.8 °F - 37.4 °F 58% 30.17 in 10.0 mi East 9.2 mph - N/A   Clear
1:55 AM 51.8 °F - 37.4 °F 58% 30.17 in 10.0 mi East 9.2 mph 17.3 mph N/A   Clear
2:15 AM 51.8 °F - 37.4 °F 58% 30.17 in 10.0 mi East 9.2 mph - N/A   Clear
2:35 AM 51.8 °F - 35.6 °F 54% 30.17 in 10.0 mi East 9.2 mph - N/A   Clear
2:55 AM 51.8 °F - 35.6 °F 54% 30.17 in 10.0 mi East 8.1 mph - N/A   Clear
3:15 AM 51.8 °F - 35.6 °F 54% 30.17 in 10.0 mi East 10.4 mph - N/A   Clear
3:35 AM 50.0 °F - 37.4 °F 62% 30.16 in 10.0 mi East 9.2 mph - N/A   Clear
3:55 AM 50.0 °F - 35.6 °F 58% 30.16 in 10.0 mi East 9.2 mph - N/A   Clear
4:15 AM 50.0 °F - 35.6 °F 58% 30.17 in 10.0 mi East 8.1 mph - N/A   Clear
4:35 AM 50.0 °F - 35.6 °F 58% 30.17 in 10.0 mi East 8.1 mph - N/A   Clear
4:55 AM 48.2 °F - 37.4 °F 66% 30.17 in 10.0 mi East 6.9 mph - N/A   Clear
5:15 AM 48.2 °F - 37.4 °F 66% 30.17 in 10.0 mi East 5.8 mph - N/A   Clear
5:35 AM 48.2 °F - 37.4 °F 66% 30.19 in 10.0 mi East 4.6 mph - N/A   Clear
5:55 AM 48.2 °F - 37.4 °F 66% 30.19 in 10.0 mi East 3.5 mph - N/A   Clear
6:15 AM 46.4 °F 43.5 °F 37.4 °F 71% 30.20 in 10.0 mi East 5.8 mph - N/A   Clear
6:35 AM 46.4 °F 42.9 °F 37.4 °F 71% 30.19 in 10.0 mi East 6.9 mph - N/A   Clear
6:55 AM 46.4 °F 44.3 °F 37.4 °F 71% 30.19 in 10.0 mi East 4.6 mph - N/A   Clear
7:15 AM 46.4 °F 44.3 °F 35.6 °F 66% 30.20 in 10.0 mi East 4.6 mph - N/A   Clear
7:35 AM 48.2 °F - 35.6 °F 62% 30.19 in 10.0 mi East 6.9 mph - N/A   Clear
7:55 AM 48.2 °F - 37.4 °F 66% 30.18 in 10.0 mi ESE 9.2 mph - N/A   Clear
8:15 AM 50.0 °F - 35.6 °F 58% 30.19 in 10.0 mi ESE 10.4 mph - N/A   Clear
8:35 AM 50.0 °F - 37.4 °F 62% 30.19 in 10.0 mi SSE 4.6 mph - N/A   Clear
8:56 AM 51.8 °F - 37.4 °F 58% 30.20 in 10.0 mi ESE 4.6 mph - N/A   Clear
9:15 AM 51.8 °F - 37.4 °F 58% 30.20 in 10.0 mi SSE 6.9 mph - N/A   Clear
9:35 AM 53.6 °F - 37.4 °F 54% 30.19 in 10.0 mi SSE 9.2 mph - N/A   Clear
9:55 AM 55.4 °F - 37.4 °F 51% 30.19 in 10.0 mi SSE 8.1 mph - N/A   Clear
10:15 AM 57.2 °F - 37.4 °F 48% 30.19 in 10.0 mi SE 8.1 mph - N/A   Clear
10:35 AM 59.0 °F - 39.2 °F 48% 30.18 in 10.0 mi SSE 9.2 mph - N/A   Clear
10:55 AM 60.8 °F - 42.8 °F 52% 30.18 in 10.0 mi SSE 10.4 mph - N/A   Clear
11:15 AM 62.6 °F - 42.8 °F 48% 30.17 in 10.0 mi SE 10.4 mph - N/A   Clear
11:35 AM 62.6 °F - 42.8 °F 48% 30.16 in 10.0 mi SE 9.2 mph - N/A   Clear
11:55 AM 64.4 °F - 44.6 °F 49% 30.16 in 10.0 mi SSE 6.9 mph - N/A   Clear
12:15 PM 64.4 °F - 44.6 °F 49% 30.14 in 10.0 mi SSE 6.9 mph - N/A   Clear
12:35 PM 66.2 °F - 44.6 °F 46% 30.14 in 10.0 mi SE 9.2 mph - N/A   Clear
12:55 PM 68.0 °F - 46.4 °F 46% 30.12 in 10.0 mi South 8.1 mph - N/A   Clear
1:15 PM 69.8 °F - 46.4 °F 43% 30.11 in 10.0 mi South 11.5 mph - N/A   Clear
1:35 PM 71.6 °F - 46.4 °F 41% 30.10 in 10.0 mi South 8.1 mph - N/A   Clear
1:55 PM 71.6 °F - 48.2 °F 43% 30.09 in 10.0 mi South 10.4 mph 16.1 mph N/A   Clear
2:35 PM 73.4 °F - 48.2 °F 41% 30.07 in 10.0 mi South 11.5 mph - N/A   Clear
2:55 PM 73.4 °F - 48.2 °F 41% 30.06 in 10.0 mi South 9.2 mph - N/A   Clear
3:15 PM 75.2 °F - 51.8 °F 44% 30.05 in 10.0 mi SSW 11.5 mph - N/A   Clear
3:35 PM 75.2 °F - 51.8 °F 44% 30.04 in 10.0 mi SSW 12.7 mph 17.3 mph N/A   Clear
4:15 PM 75.2 °F - 53.6 °F 47% 30.02 in 10.0 mi South 10.4 mph - N/A   Clear
4:35 PM 75.2 °F - 53.6 °F 47% 30.01 in 10.0 mi SSW 12.7 mph - N/A   Clear
4:55 PM 73.4 °F - 53.6 °F 50% 30.01 in 10.0 mi South 11.5 mph - N/A   Clear
5:15 PM 73.4 °F - 51.8 °F 47% 30.01 in 10.0 mi South 9.2 mph - N/A   Clear
5:35 PM 73.4 °F - 51.8 °F 47% 30.00 in 10.0 mi South 6.9 mph - N/A   Clear
5:55 PM 71.6 °F - 53.6 °F 53% 29.99 in 10.0 mi SSE 6.9 mph - N/A   Clear
6:15 PM 71.6 °F - 53.6 °F 53% 29.99 in 10.0 mi SSE 6.9 mph - N/A   Clear
6:35 PM 71.6 °F - 53.6 °F 53% 29.98 in 10.0 mi SSE 8.1 mph - N/A   Clear
6:55 PM 69.8 °F - 53.6 °F 56% 29.98 in 10.0 mi South 6.9 mph - N/A   Clear
7:15 PM 69.8 °F - 53.6 °F 56% 29.98 in 10.0 mi South 6.9 mph - N/A   Clear
7:35 PM 69.8 °F - 53.6 °F 56% 29.97 in 10.0 mi South 6.9 mph - N/A   Clear
7:55 PM 68.0 °F - 53.6 °F 60% 29.97 in 10.0 mi South 5.8 mph - N/A   Clear
8:15 PM 66.2 °F - 53.6 °F 64% 29.98 in 10.0 mi SSW 6.9 mph - N/A   Clear
8:35 PM 64.4 °F - 53.6 °F 68% 29.98 in 10.0 mi South 6.9 mph - N/A   Clear
8:55 PM 62.6 °F - 53.6 °F 72% 29.99 in 10.0 mi South 6.9 mph - N/A   Clear
9:15 PM 64.4 °F - 53.6 °F 68% 29.99 in 10.0 mi South 8.1 mph - N/A   Clear
9:35 PM 64.4 °F - 53.6 °F 68% 29.99 in 10.0 mi SSW 9.2 mph - N/A   Clear
9:55 PM 62.6 °F - 53.6 °F 72% 29.99 in 10.0 mi SSW 6.9 mph - N/A   Clear
10:15 PM 62.6 °F - 53.6 °F 72% 29.99 in 10.0 mi SSW 8.1 mph - N/A   Clear
10:35 PM 60.8 °F - 53.6 °F 77% 29.98 in 10.0 mi SSW 5.8 mph - N/A   Clear
10:55 PM 62.6 °F - 53.6 °F 72% 29.98 in 10.0 mi SW 8.1 mph - N/A   Clear
11:15 PM 62.6 °F - 53.6 °F 72% 29.99 in 10.0 mi SSW 9.2 mph - N/A   Clear
11:35 PM 60.8 °F - 53.6 °F 77% 29.98 in 10.0 mi SSW 6.9 mph - N/A   Clear
11:55 PM 60.8 °F - 53.6 °F 77% 29.98 in 10.0 mi SSW 5.8 mph - N/A   Clear